Location: Rounton
(54.4000°N, 1.3500°W)
Time: 20:00:22
(UTC+00:00)

Altair - Pass Details

Date: 04 December 2021
Orbit: 1501 x 1683 km, 47.2° (Epoch: 16 January)

Event Time Altitude Azimuth Distance (km) Brightness Sun altitude
Rises 13:18:57 0° 171° (S) 4,788 11.3 11.2°
Reaches altitude 10° 13:25:15 10° 141° (SE) 3,760 10.0 10.9°
Maximum altitude 13:27:46 11° 125° (SE) 3,639 9.7 10.8°
Drops below altitude 10° 13:30:16 10° 109° (ESE) 3,728 9.5 10.6°
Sets 13:36:22 0° 79° (E) 4,678 9.7 10.3°
